South Hill, VA

4:48 PM EDT on April 24, 2017 (GMT -0400)
Mecklenburg-Brunswick Regional

Weather History for KAVC - January, 2014

Change the Weather History Date:

Monday, January 6, 2014

  Actual Average (KEMV) Record (KEMV)
Temperature  
Mean Temperature 38 °F -  
Max Temperature 62 °F 52 °F 71 °F (1993)
Min Temperature 15 °F 29 °F 14 °F (1989)
Degree Days  
Heating Degree Days 26    
Moisture  
Dew Point 29 °F    
Average Humidity 65    
Maximum Humidity 100    
Minimum Humidity 32    
Precipitation  
Precipitation 0.21 in - - ()
Sea Level Pressure  
Sea Level Pressure 29.84 in    
Wind  
Wind Speed 11 mph (West)    
Max Wind Speed 17 mph    
Max Gust Speed 30 mph    
Visibility 9 miles    
Events Rain    
Averages and records for this station are not official NWS values.
T = Trace of Precipitation, MM = Missing Value Source: NWS Daily Summary

Daily Weather History Graph

Daily Weather History Graph

Search for Another Location

Airport or City:

Trip Planner

Search our weather history database for the weather conditions in past years. The results will help you decide how hot, cold, wet, or windy it might be!

Date:

Astronomy

Jan. 06, 2014 Rise Set
Actual Time 7:25 AM EST 5:11 PM EST
Civil Twilight 6:56 AM EST 5:39 PM EST
Nautical Twilight 6:24 AM EST 6:12 PM EST
Astronomical Twilight 5:53 AM EST 6:43 PM EST
Moon 10:49 AM EST (1/6) 11:31 PM EST (1/6)
Length of Visible Light 10h 43m
Length of Day
9h 46m
Waxing Crescent, 34% of the Moon is Illuminated
Jan 6
Waxing Crescent
Jan 7
First Quarter
Jan 15
Full
Jan 24
Last Quarter
Jan 30
New

Hourly Weather History & Observations

Time (EST) Temp. Windchill Dew Point Humidity Pressure Visibility Wind Dir Wind Speed Gust Speed Precip Events Conditions
12:37 AM 57.2 °F - 57.2 °F 100% 29.78 in 10.0 mi South 10.4 mph - N/A   Overcast
1:21 AM 59.0 °F - 59.0 °F 100% 29.76 in 7.0 mi South 8.1 mph - N/A   Overcast
1:37 AM 59.0 °F - 59.0 °F 100% 29.75 in 7.0 mi SSE 8.1 mph - N/A   Overcast
4:04 AM 62.6 °F - 62.6 °F 100% 29.65 in 10.0 mi South 15.0 mph 20.7 mph 0.04 in Rain Heavy Rain
4:15 AM 60.8 °F - 60.8 °F 100% 29.66 in 10.0 mi South 16.1 mph 24.2 mph 0.06 in Rain Rain
4:35 AM 62.6 °F - 62.6 °F 100% 29.66 in 10.0 mi South 17.3 mph 28.8 mph 0.06 in   Overcast
4:55 AM 62.6 °F - 60.8 °F 94% 29.65 in 10.0 mi SSW 16.1 mph 23.0 mph N/A   Overcast
5:15 AM 62.6 °F - 60.8 °F 94% 29.64 in 10.0 mi South 16.1 mph 27.6 mph N/A   Overcast
5:35 AM 62.6 °F - 60.8 °F 94% 29.63 in 10.0 mi SSW 13.8 mph 21.9 mph N/A   Overcast
5:55 AM 62.6 °F - 60.8 °F 94% 29.64 in 7.0 mi SSW 16.1 mph 25.3 mph N/A Rain Rain
6:15 AM 62.6 °F - 60.8 °F 94% 29.64 in 10.0 mi SSW 17.3 mph 25.3 mph 0.01 in Rain Rain
6:35 AM 60.8 °F - 60.8 °F 100% 29.64 in 10.0 mi SW 12.7 mph 20.7 mph 0.03 in Rain Rain
6:55 AM 50.0 °F - 50.0 °F 100% 29.68 in 10.0 mi West 11.5 mph 20.7 mph 0.02 in Rain Light Rain
7:15 AM 48.2 °F - 48.2 °F 100% 29.68 in 7.0 mi West 8.1 mph 17.3 mph 0.03 in   Drizzle
7:35 AM 50.0 °F - 50.0 °F 100% 29.68 in 7.0 mi West 9.2 mph 18.4 mph 0.04 in   Drizzle
7:55 AM 50.0 °F - 50.0 °F 100% 29.68 in 5.0 mi WSW 4.6 mph - 0.01 in Rain Heavy Rain
8:15 AM 48.2 °F - 48.2 °F 100% 29.70 in 5.0 mi West 8.1 mph - 0.03 in   Drizzle
8:35 AM 48.2 °F - 48.2 °F 100% 29.71 in 5.0 mi West 13.8 mph 23.0 mph 0.04 in   Drizzle
8:55 AM 48.2 °F - 48.2 °F 100% 29.72 in 7.0 mi West 8.1 mph - N/A Rain Light Rain
9:15 AM 46.4 °F 43.5 °F 46.4 °F 100% 29.73 in 7.0 mi West 5.8 mph 19.6 mph 0.02 in Rain Rain
9:35 AM 46.4 °F 41.5 °F 46.4 °F 100% 29.74 in 7.0 mi West 10.4 mph 18.4 mph 0.03 in Rain Rain
9:55 AM 46.4 °F 42.4 °F 46.4 °F 100% 29.74 in 10.0 mi West 8.1 mph - N/A Rain Light Rain
10:15 AM 42.8 °F 36.2 °F 39.2 °F 87% 29.78 in 10.0 mi West 12.7 mph 19.6 mph 0.01 in Rain Light Rain
10:35 AM 42.8 °F 37.5 °F 39.2 °F 87% 29.77 in 10.0 mi WNW 9.2 mph - 0.01 in   Light Drizzle
10:55 AM 42.8 °F 38.6 °F 39.2 °F 87% 29.76 in 10.0 mi WNW 6.9 mph - N/A Rain Light Rain
11:15 AM 42.8 °F 38.0 °F 37.4 °F 81% 29.76 in 10.0 mi West 8.1 mph - N/A   Overcast
11:35 AM 42.8 °F 38.0 °F 33.8 °F 70% 29.76 in 10.0 mi West 8.1 mph - N/A   Overcast
11:55 AM 44.6 °F 40.2 °F 33.8 °F 66% 29.75 in 10.0 mi West 8.1 mph - N/A   Overcast
12:15 PM 46.4 °F 42.4 °F 33.8 °F 62% 29.75 in 10.0 mi West 8.1 mph 17.3 mph N/A   Mostly Cloudy
12:35 PM 46.4 °F 40.7 °F 28.4 °F 50% 29.75 in 10.0 mi West 12.7 mph 26.5 mph N/A   Scattered Clouds
12:55 PM 46.4 °F 40.4 °F 28.4 °F 50% 29.75 in 10.0 mi West 13.8 mph 26.5 mph N/A   Clear
1:15 PM 44.6 °F 37.4 °F 26.6 °F 49% 29.75 in 10.0 mi West 16.1 mph 24.2 mph N/A   Clear
1:35 PM 46.4 °F 40.4 °F 24.8 °F 43% 29.76 in 10.0 mi West 13.8 mph 21.9 mph N/A   Clear
1:55 PM 44.6 °F 39.2 °F 23.0 °F 43% 29.77 in 10.0 mi WNW 10.4 mph 25.3 mph N/A   Clear
2:15 PM 44.6 °F 39.2 °F 23.0 °F 43% 29.77 in 10.0 mi WNW 10.4 mph 17.3 mph N/A   Clear
2:35 PM 44.6 °F 39.2 °F 23.0 °F 43% 29.79 in 10.0 mi West 10.4 mph 23.0 mph N/A   Clear
2:55 PM 42.8 °F 36.6 °F 21.2 °F 42% 29.80 in 10.0 mi West 11.5 mph 20.7 mph N/A   Clear
3:15 PM 42.8 °F 35.8 °F 17.6 °F 36% 29.81 in 10.0 mi WNW 13.8 mph 23.0 mph N/A   Clear
3:35 PM 42.8 °F 37.5 °F 21.2 °F 42% 29.82 in 10.0 mi West 9.2 mph 16.1 mph N/A   Clear
3:55 PM 41.0 °F 35.2 °F 19.4 °F 42% 29.84 in 10.0 mi WNW 9.2 mph 19.6 mph N/A   Clear
4:15 PM 39.2 °F 33.0 °F 19.4 °F 45% 29.85 in 10.0 mi WNW 9.2 mph 16.1 mph N/A   Clear
4:35 PM 39.2 °F 33.6 °F 19.4 °F 45% 29.86 in 10.0 mi WNW 8.1 mph 23.0 mph N/A   Clear
4:55 PM 37.4 °F 31.4 °F 19.4 °F 48% 29.88 in 10.0 mi WNW 8.1 mph - N/A   Clear
5:15 PM 37.4 °F 29.8 °F 17.6 °F 45% 29.89 in 10.0 mi West 11.5 mph 23.0 mph N/A   Clear
5:35 PM 35.6 °F 28.0 °F 17.6 °F 48% 29.90 in 10.0 mi WNW 10.4 mph - N/A   Clear
5:55 PM 35.6 °F 29.2 °F 17.6 °F 48% 29.92 in 10.0 mi West 8.1 mph 20.7 mph N/A   Clear
6:15 PM 33.8 °F 27.7 °F 15.8 °F 48% 29.93 in 10.0 mi WNW 6.9 mph 19.6 mph N/A   Clear
6:35 PM 33.8 °F 28.6 °F 15.8 °F 48% 29.95 in 10.0 mi WNW 5.8 mph - N/A   Clear
6:55 PM 33.8 °F 25.8 °F 12.2 °F 41% 29.97 in 10.0 mi WNW 10.4 mph 20.7 mph N/A   Clear
7:15 PM 30.2 °F 20.2 °F 10.4 °F 44% 29.99 in 10.0 mi WNW 12.7 mph 19.6 mph N/A   Clear
7:35 PM 30.2 °F 21.3 °F 10.4 °F 44% 30.00 in 10.0 mi WNW 10.4 mph 24.2 mph N/A   Clear
7:55 PM 28.4 °F 17.5 °F 8.6 °F 43% 30.01 in 10.0 mi WNW 13.8 mph 24.2 mph N/A   Clear
8:15 PM 28.4 °F 17.5 °F 5.0 °F 37% 30.03 in 10.0 mi WNW 13.8 mph 25.3 mph N/A   Clear
8:35 PM 26.6 °F 14.7 °F 3.2 °F 37% 30.05 in 10.0 mi WNW 15.0 mph 26.5 mph N/A   Clear
8:55 PM 24.8 °F 12.9 °F -0.4 °F 34% 30.08 in 10.0 mi WNW 13.8 mph 24.2 mph N/A   Clear
9:15 PM 24.8 °F 14.0 °F 1.4 °F 36% 30.09 in 10.0 mi WNW 11.5 mph 19.6 mph N/A   Clear
9:35 PM 23.0 °F 9.6 °F 1.4 °F 39% 30.11 in 10.0 mi West 16.1 mph 27.6 mph N/A   Clear
9:55 PM 21.2 °F 9.5 °F -2.2 °F 36% 30.13 in 10.0 mi WNW 11.5 mph 24.2 mph N/A   Clear
10:15 PM 21.2 °F 10.9 °F -2.2 °F 36% 30.14 in 10.0 mi WNW 9.2 mph 19.6 mph N/A   Clear
10:35 PM 19.4 °F 7.2 °F -5.8 °F 33% 30.15 in 10.0 mi WNW 11.5 mph 29.9 mph N/A   Clear
10:55 PM 17.6 °F 4.3 °F -5.8 °F 35% 30.16 in 10.0 mi West 12.7 mph 24.2 mph N/A   Clear
11:15 PM 17.6 °F 5.0 °F -7.6 °F 32% 30.17 in 10.0 mi WNW 11.5 mph 24.2 mph N/A   Clear
11:35 PM 15.8 °F 2.1 °F -7.6 °F 35% 30.18 in 10.0 mi West 12.7 mph 18.4 mph N/A   Clear
11:55 PM 15.8 °F 4.2 °F -7.6 °F 35% 30.19 in 10.0 mi West 9.2 mph 18.4 mph N/A   Clear